EW5447 Weather Reports


Display with metric or nautical units.
time (UTC)temp
F
wind
direction
speed
MPH
gust
MPH
rain 1hr
in
rain 24hr
in
rain mn
in
humidity
%
barometer
mb
20260508210014 77 19 1.0 5.0 0.00 0.00 0.00 31 1018.9
20260508204515 77 121 3.0 8.0 0.00 0.00 0.00 33 1019.0
20260508203013 77 128 1.0 4.0 0.00 0.00 0.00 33 1019.1
20260508201510 75 179 1.0 3.0 0.00 0.00 0.00 31 1019.3
20260508200011 75 47 2.0 5.0 0.00 0.00 0.00 33 1019.5
20260508194508 74 262 2.0 8.0 0.00 0.00 0.00 33 1019.7
20260508193005 73 150 2.0 8.0 0.00 0.00 0.00 34 1019.8
20260508191504 72 236 3.0 7.0 0.00 0.00 0.00 32 1019.8
20260508190003 73 194 2.0 5.0 0.00 0.00 0.00 29 1020.0
20260508184500 71 302 1.0 8.0 0.00 0.00 0.00 37 1020.1
20260508183105 70 250 1.0 7.0 0.00 0.00 0.00 37 1020.1
20260508181613 71 11 0.0 2.0 0.00 0.00 0.00 47 1020.3
20260508180113 68 201 2.0 4.0 0.00 0.00 0.00 46 1020.5
20260508174603 67 211 2.0 5.0 0.00 0.00 0.00 48 1020.5
20260508173052 67 200 2.0 4.0 0.00 0.00 0.00 54 1020.6
20260508171547 64 262 0.0 3.0 0.00 0.00 0.00 57 1020.6
20260508170049 63 88 0.0 2.0 0.00 0.00 0.00 61 1020.5
20260508164551 64 231 1.0 4.0 0.00 0.00 0.00 58 1020.5
20260508163042 63 168 0.0 2.0 0.00 0.00 0.00 61 1020.8
20260508161544 62 13 0.0 2.0 0.00 0.00 0.00 61 1020.8
20260508160040 61 140 0.0 3.0 0.00 0.00 0.00 64 1020.8
20260508154539 59 296 0.0 2.0 0.00 0.00 0.00 72 1020.8
20260508153028 56 232 0.0 2.0 0.00 0.00 0.00 79 1020.9
20260508151526 54 242 0.0 2.0 0.00 0.00 0.00 81 1020.9
20260508150023 52 255 0.0 2.0 0.00 0.00 0.00 84 1020.8
20260508144519 50 217 0.0 0.0 0.00 0.00 0.00 88 1020.6
20260508143016 49 69 0.0 1.0 0.00 0.00 0.00 90 1020.3
20260508141514 45 290 0.0 1.0 0.00 0.00 0.00 93 1020.4
20260508140010 42 308 0.0 0.0 0.00 0.00 0.00 93 1020.0
20260508134508 42 9 0.0 2.0 0.00 0.00 0.00 93 1019.8
20260508133004 42 345 0.0 0.0 0.00 0.00 0.00 93 1019.7
20260508131501 43 214 0.0 0.0 0.00 0.00 0.00 90 1019.4
20260508130100 44 164 0.0 0.0 0.00 0.00 0.00 91 1019.4
20260508124558 44 227 0.0 0.0 0.00 0.00 0.00 92 1019.3
20260508123058 43 265 0.0 0.0 0.00 0.00 0.00 92 1019.3
20260508121603 42 296 0.0 0.0 0.00 0.00 0.00 92 1019.0
20260508120058 42 350 0.0 0.0 0.00 0.00 0.00 92 1018.9
20260508114550 43 306 0.0 0.0 0.00 0.00 0.00 92 1018.8
20260508113055 43 124 1.0 2.0 0.00 0.00 0.00 91 1018.7
20260508111555 43 303 0.0 2.0 0.00 0.00 0.00 89 1018.7
20260508110056 44 301 0.0 1.0 0.00 0.00 0.00 93 1018.4
20260508104539 44 304 1.0 3.0 0.00 0.00 0.00 89 1018.3
20260508103048 44 257 0.0 2.0 0.00 0.00 0.00 90 1018.2
20260508101542 44 288 0.0 2.0 0.00 0.00 0.00 89 1018.3
20260508100033 45 69 0.0 2.0 0.00 0.00 0.00 89 1018.1
20260508094531 45 31 1.0 2.0 0.00 0.00 0.00 88 1018.0
20260508093028 48 306 0.0 0.0 0.00 0.00 0.00 85 1018.0
20260508091524 48 317 0.0 0.0 0.00 0.00 0.00 85 1017.7
20260508090024 50 355 0.0 0.0 0.00 0.00 0.00 84 1017.6
20260508084523 50 350 0.0 1.0 0.00 0.00 0.00 81 1017.5
20260508083021 53 9 1.0 3.0 0.00 0.00 0.00 79 1017.5
20260508081520 54 51 3.0 6.0 0.00 0.00 0.00 79 1017.4
20260508080023 49 250 0.0 2.0 0.00 0.00 0.00 84 1017.6
20260508074514 52 12 0.0 2.0 0.00 0.00 0.00 79 1017.5
20260508073018 51 348 0.0 2.0 0.00 0.00 0.00 82 1017.5
20260508071521 52 355 0.0 0.0 0.00 0.00 0.00 81 1017.5
20260508070010 54 318 0.0 0.0 0.00 0.00 0.00 78 1017.4
20260508064511 53 350 0.0 0.0 0.00 0.00 0.00 79 1017.4
20260508063009 54 306 0.0 0.0 0.00 0.00 0.00 79 1017.3
20260508061515 55 269 0.0 0.0 0.00 0.00 0.00 77 1017.2
20260508060012 55 269 0.0 0.0 0.00 0.00 0.00 74 1017.0
20260508054507 56 60 0.0 0.0 0.00 0.00 0.00 76 1016.8
20260508053017 56 19 0.0 2.0 0.00 0.00 0.00 76 1016.7
20260508051506 57 346 1.0 2.0 0.00 0.00 0.00 74 1016.7
20260508050017 58 19 0.0 0.0 0.00 0.00 0.00 71 1016.4
20260508044505 60 324 0.0 0.0 0.00 0.00 0.00 70 1016.3
20260508043006 62 319 0.0 2.0 0.00 0.00 0.00 64 1016.0
20260508041504 65 355 2.0 3.0 0.00 0.00 0.00 57 1015.7
20260508040005 66 23 1.0 3.0 0.00 0.00 0.00 55 1015.4
20260508034503 67 344 2.0 5.0 0.00 0.00 0.00 54 1015.1
20260508033002 69 9 2.0 9.0 0.00 0.00 0.00 51 1014.7
20260508031502 69 344 1.0 3.0 0.00 0.00 0.00 53 1014.5
20260508030001 71 59 2.0 4.0 0.00 0.00 0.00 51 1014.4
20260508024505 75 33 0.0 3.0 0.00 0.00 0.00 45 1014.2
20260508023100 77 12 1.0 6.0 0.00 0.00 0.00 44 1014.1
20260508021600 78 332 5.0 10.0 0.00 0.00 0.00 41 1014.0
20260508020059 80 338 3.0 8.0 0.00 0.00 0.00 40 1013.9
20260508014659 80 5 3.0 8.0 0.00 0.00 0.00 39 1013.9
20260508013058 81 10 3.0 8.0 0.00 0.00 0.00 36 1013.9
20260508011557 82 262 1.0 4.0 0.00 0.00 0.00 35 1014.0
20260508010055 82 275 3.0 8.0 0.00 0.00 0.00 34 1014.1
20260508004555 83 261 4.0 10.0 0.00 0.00 0.00 30 1014.1
20260508003105 83 242 7.0 11.0 0.00 0.00 0.00 29 1014.2
20260508001558 83 237 8.0 15.0 0.00 0.00 0.00 30 1014.2
20260508000052 83 271 6.0 18.0 0.00 0.00 0.00 27 1014.2
20260507234551 83 285 7.0 12.0 0.00 0.00 0.00 29 1014.3
20260507233050 84 244 8.0 15.0 0.00 0.00 0.00 29 1014.3
20260507231548 84 292 8.0 15.0 0.00 0.00 0.00 26 1014.5
20260507230046 84 313 6.0 10.0 0.00 0.00 0.00 28 1014.6
20260507224600 84 202 4.0 10.0 0.00 0.00 0.00 33 1014.8
20260507223051 83 245 3.0 6.0 0.00 0.00 0.00 30 1015.0
20260507221538 83 225 1.0 4.0 0.00 0.00 0.00 34 1015.2
20260507220037 82 65 2.0 5.0 0.00 0.00 0.00 32 1015.5
20260507214535 82 171 1.0 7.0 0.00 0.00 0.00 35 1015.8
20260507213032 82 334 2.0 5.0 0.00 0.00 0.00 36 1016.0
20260507211529 80 111 1.0 6.0 0.00 0.00 0.00 33 1016.1